• In Latvia
  • List of Countries
  • For 7 days
  • Water Temperature
  • Satellite Maps
  • Weather Map
  • Weather Widgets
  • user-avatar
    Login

    Hourly Weather Bregenz

    Today, 20 January, Saturday

    Time Temperature Precipitation Wind Pressure Humidity
    00:00 -7°C° 0.8 mm 3 mps 641 mmHg 93%
    01:00 -7°C° 0 mm 3 mps 641 mmHg 94%
    02:00 -7°C° 0.2 mm 3 mps 641 mmHg 94%
    03:00 -8°C° 0.2 mm 3 mps 641 mmHg 93%
    04:00 -7°C° 0.2 mm 2 mps 641 mmHg 93%
    05:00 -8°C° 0 mm 3 mps 641 mmHg 90%
    06:00 -9°C° 0 mm 3 mps 641 mmHg 88%
    07:00 -8°C° 0 mm 3 mps 640 mmHg 87%
    08:00 -8°C° 0.1 mm 3 mps 640 mmHg 85%
    09:00 -8°C° 0.1 mm 3 mps 640 mmHg 82%
    10:00 -7°C° 0.1 mm 3 mps 640 mmHg 79%
    11:00 -6°C° 0 mm 3 mps 639 mmHg 76%
    12:00 -5°C° 0 mm 3 mps 639 mmHg 72%
    13:00 -2°C° 0 mm 3 mps 638 mmHg 68%
    14:00 -4°C° 0.1 mm 3 mps 637 mmHg 71%
    15:00 -4°C° 0.1 mm 3 mps 636 mmHg 74%
    16:00 -4°C° 0.1 mm 3 mps 635 mmHg 76%
    17:00 -5°C° 0.9 mm 3 mps 634 mmHg 80%
    18:00 -5°C° 0.9 mm 4 mps 634 mmHg 84%
    19:00 -7°C° 0.9 mm 4 mps 633 mmHg 88%
    20:00 -6°C° 1.8 mm 5 mps 633 mmHg 90%
    21:00 -6°C° 1.8 mm 5 mps 634 mmHg 92%
    22:00 -5°C° 1.8 mm 5 mps 634 mmHg 94%
    23:00 -5°C° 1 mm 5 mps 635 mmHg 94%

    Tomorrow, 21 January, Sunday

    Time Temperature Precipitation Wind Pressure Humidity
    00:00 -4°C° 1 mm 4 mps 635 mmHg 95%
    01:00 -4°C° 1 mm 3 mps 635 mmHg 95%
    02:00 -4°C° 1.1 mm 3 mps 635 mmHg 96%
    03:00 -4°C° 1.1 mm 3 mps 635 mmHg 96%
    04:00 -2°C° 1.1 mm 3 mps 635 mmHg 96%
    05:00 -2°C° 1.5 mm 3 mps 636 mmHg 96%
    06:00 -3°C° 1.5 mm 4 mps 636 mmHg 96%
    07:00 -3°C° 1.5 mm 4 mps 637 mmHg 96%
    08:00 -3°C° 1 mm 4 mps 638 mmHg 95%
    09:00 -5°C° 1 mm 5 mps 638 mmHg 94%
    10:00 -5°C° 1 mm 5 mps 639 mmHg 94%
    11:00 -4°C° 1 mm 4 mps 640 mmHg 93%
    12:00 -5°C° 1 mm 4 mps 640 mmHg 92%
    13:00 -5°C° 1 mm 3 mps 641 mmHg 91%
    14:00 -5°C° 0.8 mm 3 mps 642 mmHg 91%
    15:00 -4°C° 0.8 mm 2 mps 642 mmHg 91%
    16:00 -4°C° 0.8 mm 2 mps 643 mmHg 92%
    17:00 -5°C° 0.8 mm 2 mps 643 mmHg 92%
    18:00 -3°C° 0.8 mm 1 mps 643 mmHg 93%
    19:00 -3°C° 0.8 mm 1 mps 643 mmHg 93%
    20:00 -5°C° 0.9 mm 2 mps 643 mmHg 93%
    21:00 -5°C° 0.9 mm 2 mps 643 mmHg 93%
    22:00 -5°C° 0.9 mm 2 mps 643 mmHg 93%
    23:00 -4°C° 1.2 mm 2 mps 642 mmHg 94%

    Day after tomorrow, 22 January, Monday

    Time Temperature Precipitation Wind Pressure Humidity
    00:00 -4°C° 1.2 mm 2 mps 642 mmHg 95%
    01:00 -3°C° 1.2 mm 2 mps 642 mmHg 96%
    02:00 -2°C° 2.5 mm 3 mps 641 mmHg 96%
    03:00 -1°C° 2.5 mm 3 mps 641 mmHg 97%
    04:00 -1°C° 2.5 mm 4 mps 641 mmHg 97%
    05:00 -1°C° 3.1 mm 4 mps 641 mmHg 97%
    06:00 -1°C° 3.1 mm 4 mps 641 mmHg 97%
    07:00 -1°C° 3.1 mm 4 mps 641 mmHg 97%
    08:00 -1°C° 2.5 mm 4 mps 641 mmHg 97%
    09:00 -1°C° 2.5 mm 4 mps 642 mmHg 98%
    10:00 0°C° 2.5 mm 4 mps 642 mmHg 98%
    11:00 +1°C° 0.8 mm 3 mps 642 mmHg 98%
    12:00 +1°C° 0.8 mm 3 mps 642 mmHg 98%
    13:00 +1°C° 0.8 mm 3 mps 642 mmHg 98%
    14:00 +1°C° 0.3 mm 3 mps 643 mmHg 98%
    15:00 +1°C° 0.3 mm 3 mps 643 mmHg 97%
    16:00 +1°C° 0.3 mm 3 mps 643 mmHg 97%
    17:00 +1°C° 1.1 mm 3 mps 643 mmHg 97%
    18:00 +2°C° 1.1 mm 2 mps 643 mmHg 96%
    19:00 +1°C° 1.1 mm 2 mps 643 mmHg 96%
    20:00 +1°C° 2.7 mm 2 mps 643 mmHg 96%
    21:00 +1°C° 2.7 mm 2 mps 643 mmHg 96%
    22:00 +1°C° 2.7 mm 2 mps 643 mmHg 96%
    23:00 +1°C° 2.4 mm 2 mps 644 mmHg 96%

    23 January, Tuesday

    Time Temperature Precipitation Wind Pressure Humidity
    00:00 +2°C° 2.4 mm 1 mps 644 mmHg 96%
    01:00 +2°C° 2.4 mm 1 mps 644 mmHg 96%
    02:00 +2°C° 1.9 mm 1 mps 644 mmHg 97%
    03:00 +2°C° 1.9 mm 1 mps 644 mmHg 97%
    04:00 +2°C° 1.9 mm 1 mps 645 mmHg 97%
    05:00 +2°C° 1.8 mm 1 mps 645 mmHg 97%
    06:00 +2°C° 1.8 mm 1 mps 646 mmHg 97%
    07:00 +2°C° 1.8 mm 1 mps 647 mmHg 98%
    08:00 +2°C° 0.5 mm 1 mps 647 mmHg 98%
    09:00 +2°C° 0.5 mm 1 mps 648 mmHg 98%
    10:00 +2°C° 0.5 mm 1 mps 648 mmHg 98%
    11:00 +2°C° 0 mm 1 mps 649 mmHg 97%
    12:00 +3°C° 0 mm 1 mps 649 mmHg 96%
    13:00 +3°C° 0 mm 1 mps 649 mmHg 96%
    14:00 +3°C° 0 mm 1 mps 649 mmHg 96%
    15:00 +3°C° 0 mm 1 mps 649 mmHg 96%
    16:00 +3°C° 0 mm 1 mps 650 mmHg 96%
    17:00 +2°C° 0 mm 1 mps 650 mmHg 95%
    18:00 +1°C° 0 mm 1 mps 650 mmHg 94%
    19:00 -2°C° 0 mm 2 mps 650 mmHg 93%
    20:00 -2°C° 0 mm 2 mps 650 mmHg 90%
    21:00 -3°C° 0 mm 2 mps 650 mmHg 88%
    22:00 -3°C° 0 mm 2 mps 651 mmHg 85%
    23:00 -3°C° 0 mm 2 mps 651 mmHg 82%

    24 January, Wednesday

    Time Temperature Precipitation Wind Pressure Humidity
    00:00 -3°C° 0 mm 2 mps 651 mmHg 80%
    01:00 -4°C° 0 mm 2 mps 651 mmHg 78%
    02:00 -4°C° 0 mm 2 mps 650 mmHg 76%
    03:00 -4°C° 0 mm 2 mps 650 mmHg 74%
    04:00 -4°C° 0 mm 2 mps 650 mmHg 72%
    05:00 -4°C° 0 mm 2 mps 650 mmHg 70%
    06:00 -4°C° 0 mm 2 mps 650 mmHg 69%
    07:00 -4°C° 0 mm 2 mps 650 mmHg 67%
    08:00 -3°C° 0 mm 2 mps 651 mmHg 69%
    09:00 -2°C° 0 mm 2 mps 651 mmHg 70%
    10:00 -1°C° 0 mm 2 mps 651 mmHg 71%
    11:00 +1°C° 0 mm 2 mps 651 mmHg 76%
    12:00 +3°C° 0 mm 1 mps 651 mmHg 80%
    13:00 +4°C° 0 mm 1 mps 651 mmHg 85%
    14:00 +4°C° 0 mm 1 mps 651 mmHg 83%
    15:00 +4°C° 0 mm 1 mps 651 mmHg 81%
    16:00 +4°C° 0 mm 1 mps 650 mmHg 79%
    17:00 +2°C° 0 mm 1 mps 650 mmHg 77%
    18:00 -1°C° 0 mm 2 mps 650 mmHg 75%
    19:00 -2°C° 0 mm 2 mps 650 mmHg 72%
    20:00 -2°C° 0 mm 2 mps 650 mmHg 72%
    21:00 -3°C° 0 mm 2 mps 650 mmHg 71%
    22:00 -3°C° 0 mm 2 mps 650 mmHg 70%
    23:00 -3°C° 0 mm 2 mps 650 mmHg 70%

    25 January, Thursday

    Time Temperature Precipitation Wind Pressure Humidity
    00:00 -3°C° 0 mm 2 mps 649 mmHg 69%
    01:00 -3°C° 0 mm 2 mps 649 mmHg 69%
    02:00 -3°C° 0 mm 2 mps 649 mmHg 69%
    03:00 -3°C° 0 mm 2 mps 648 mmHg 68%
    04:00 -4°C° 0 mm 2 mps 648 mmHg 68%
    05:00 -4°C° 0 mm 2 mps 648 mmHg 68%
    06:00 -4°C° 0 mm 2 mps 648 mmHg 68%
    07:00 -4°C° 0 mm 2 mps 648 mmHg 68%
    08:00 -3°C° 0 mm 2 mps 648 mmHg 69%
    09:00 -2°C° 0 mm 2 mps 648 mmHg 70%
    10:00 -1°C° 0 mm 2 mps 648 mmHg 71%
    11:00 +1°C° 0 mm 2 mps 647 mmHg 75%
    12:00 +2°C° 0 mm 2 mps 647 mmHg 79%
    13:00 +3°C° 0 mm 2 mps 647 mmHg 83%
    14:00 +3°C° 0 mm 2 mps 646 mmHg 82%
    15:00 +3°C° 0 mm 2 mps 646 mmHg 82%
    16:00 +4°C° 0 mm 1 mps 645 mmHg 82%
    17:00 +2°C° 0 mm 2 mps 645 mmHg 82%
    18:00 +1°C° 0 mm 2 mps 645 mmHg 82%
    19:00 -1°C° 0 mm 2 mps 645 mmHg 81%
    20:00 -1°C° 0 mm 2 mps 645 mmHg 82%
    21:00 -2°C° 0 mm 2 mps 644 mmHg 82%
    22:00 -2°C° 0 mm 2 mps 644 mmHg 82%
    23:00 -2°C° 0 mm 2 mps 644 mmHg 82%
    Show more